Waukesha, WI

1:44 PM CST on January 24, 2017 (GMT -0600)
Waukesha County

Weather History for KUES - April, 2014

Change the Weather History Date:

Friday, April 4, 2014

  Actual Average Record
Temperature  
Mean Temperature 34 °F -  
Max Temperature 39 °F 46 °F 73 °F (1997)
Min Temperature 30 °F 29 °F 14 °F (1982)
Degree Days  
Heating Degree Days 30    
Moisture  
Dew Point 30 °F    
Average Humidity 89    
Maximum Humidity 100    
Minimum Humidity 75    
Precipitation  
Precipitation 0.00 in - - ()
Sea Level Pressure  
Sea Level Pressure 29.66 in    
Wind  
Wind Speed 13 mph (SSE)    
Max Wind Speed 25 mph    
Max Gust Speed 34 mph    
Visibility 7 miles    
Events Fog , Rain , Snow    
Averages and records for this station are not official NWS values.
T = Trace of Precipitation, MM = Missing Value Source: NWS Daily Summary

Daily Weather History Graph

Daily Weather History Graph

Search for Another Location

Airport or City:

Trip Planner

Search our weather history database for the weather conditions in past years. The results will help you decide how hot, cold, wet, or windy it might be!

Date:

Astronomy

Apr. 04, 2014 Rise Set
Actual Time 6:29 AM CDT 7:22 PM CDT
Civil Twilight 6:00 AM CDT 7:51 PM CDT
Nautical Twilight 5:26 AM CDT 8:26 PM CDT
Astronomical Twilight 4:50 AM CDT 9:01 PM CDT
Moon 9:41 AM CDT (4/4) No Moon Set
Length of Visible Light 13h 50m
Length of Day
12h 53m
Waxing Crescent, 25% of the Moon is Illuminated
Apr 4
Waxing Crescent
Apr 7
First Quarter
Apr 15
Full
Apr 22
Last Quarter
Apr 29
New

Hourly Weather History & Observations

Time (CDT) Temp. Windchill Dew Point Humidity Pressure Visibility Wind Dir Wind Speed Gust Speed Precip Events Conditions
12:15 AM 32.0 °F 22.5 °F 30.2 °F 93% 29.68 in 10.0 mi East 12.7 mph - N/A   Overcast
12:35 AM 32.0 °F 22.1 °F 28.4 °F 87% 29.68 in 10.0 mi East 13.8 mph 19.6 mph N/A   Overcast
12:55 AM 32.0 °F 21.6 °F 28.4 °F 87% 29.66 in 10.0 mi East 15.0 mph 20.7 mph N/A   Overcast
1:15 AM 32.0 °F 21.6 °F 28.4 °F 87% 29.67 in 10.0 mi East 15.0 mph 20.7 mph N/A   Overcast
1:35 AM 32.0 °F 20.8 °F 28.4 °F 87% 29.66 in 10.0 mi ESE 17.3 mph 23.0 mph N/A   Overcast
1:55 AM 32.0 °F 20.5 °F 30.2 °F 93% 29.66 in 10.0 mi ESE 18.4 mph 24.2 mph N/A   Overcast
2:15 AM 32.0 °F 23.0 °F 30.2 °F 93% 29.64 in 10.0 mi East 11.5 mph - N/A   Overcast
2:35 AM 32.0 °F 24.8 °F 30.2 °F 93% 29.63 in 10.0 mi East 8.1 mph - N/A   Overcast
2:55 AM 32.0 °F 23.0 °F 30.2 °F 93% 29.59 in 7.0 mi East 11.5 mph - N/A   Overcast
3:15 AM 32.0 °F 24.8 °F 30.2 °F 93% 29.57 in 5.0 mi East 8.1 mph - N/A   Overcast
3:35 AM 32.0 °F 24.8 °F 32.0 °F 100% 29.57 in 3.0 mi ESE 8.1 mph - N/A   Overcast
3:55 AM 32.0 °F 24.8 °F 32.0 °F 100% 29.54 in 1.2 mi East 8.1 mph - N/A   Overcast
4:15 AM 32.0 °F 25.6 °F 32.0 °F 100% 29.51 in 0.2 mi East 6.9 mph - N/A Fog Fog
4:35 AM 32.0 °F 24.8 °F 32.0 °F 100% 29.49 in 0.2 mi East 8.1 mph - N/A Fog Fog
4:55 AM 32.0 °F 23.6 °F 32.0 °F 100% 29.48 in 0.2 mi East 10.4 mph - N/A Fog Fog
5:15 AM 32.0 °F 25.6 °F 32.0 °F 100% 29.48 in 0.5 mi ESE 6.9 mph - N/A Rain Light Rain
5:35 AM 33.8 °F 27.7 °F 32.0 °F 93% 29.48 in 1.0 mi ESE 6.9 mph - N/A Rain Rain
5:45 AM 33.8 °F 27.7 °F 33.8 °F 100% 29.48 in 2.5 mi ESE 6.9 mph - N/A Rain Light Rain
6:45 AM 33.8 °F 27.7 °F 33.8 °F 100% 29.47 in 1.5 mi ESE 6.9 mph - N/A   Overcast
7:45 AM 35.6 °F 29.9 °F 35.6 °F 100% 29.45 in 0.8 mi ESE 6.9 mph - N/A   Overcast
8:45 AM 35.6 °F - 35.6 °F 100% 29.42 in 0.5 mi Calm Calm - N/A Fog Fog
9:45 AM 39.2 °F 30.8 °F 39.2 °F 100% 29.43 in 4.0 mi WSW 15.0 mph - N/A   Overcast
10:45 AM 35.6 °F 26.2 °F 35.6 °F 100% 29.46 in 7.0 mi West 15.0 mph - N/A   Overcast
11:45 AM 35.6 °F 26.2 °F 33.8 °F 93% 29.47 in 10.0 mi West 15.0 mph - N/A   Overcast
12:45 PM 33.8 °F 23.9 °F 32.0 °F 93% 29.49 in 10.0 mi West 15.0 mph 26.5 mph N/A   Overcast
1:45 PM 35.6 °F 25.2 °F 30.2 °F 81% 29.51 in 10.0 mi West 18.4 mph 24.2 mph N/A   Overcast
2:45 PM 35.6 °F 25.2 °F 28.4 °F 75% 29.56 in 10.0 mi West 18.4 mph 24.2 mph N/A   Overcast
4:45 PM 33.8 °F 22.8 °F 28.4 °F 81% 29.65 in 10.0 mi West 18.4 mph 26.5 mph N/A   Overcast
5:45 PM 33.8 °F 22.2 °F 28.4 °F 81% 29.70 in 10.0 mi West 20.7 mph 26.5 mph N/A   Overcast
6:45 PM 33.8 °F 22.2 °F 28.4 °F 81% 29.75 in 7.0 mi West 20.7 mph 26.5 mph N/A Snow Light Snow
7:45 PM 32.0 °F 19.8 °F 26.6 °F 80% 29.81 in 5.0 mi West 20.7 mph 26.5 mph N/A Snow Light Snow
8:45 PM 30.2 °F 18.9 °F 24.8 °F 80% 29.86 in 10.0 mi West 16.1 mph 26.5 mph N/A   Overcast
9:15 PM 32.0 °F 19.2 °F 24.8 °F 75% 29.88 in 10.0 mi WNW 23.0 mph 34.5 mph N/A   Overcast
9:35 PM 30.2 °F 16.2 °F 24.8 °F 80% 29.90 in 10.0 mi NW 25.3 mph 31.1 mph N/A   Overcast
9:55 PM 30.2 °F 18.1 °F 24.8 °F 80% 29.91 in 10.0 mi NW 18.4 mph 32.2 mph N/A   Overcast
10:15 PM 30.2 °F 18.1 °F 24.8 °F 80% 29.93 in 10.0 mi WNW 18.4 mph 25.3 mph N/A   Overcast
10:35 PM 30.2 °F 20.2 °F 26.6 °F 86% 29.93 in 10.0 mi WNW 12.7 mph 24.2 mph N/A   Overcast
10:55 PM 30.2 °F 19.8 °F 26.6 °F 86% 29.94 in 10.0 mi WNW 13.8 mph - N/A   Overcast
11:15 PM 32.0 °F 20.5 °F 24.8 °F 75% 29.95 in 10.0 mi WNW 18.4 mph 24.2 mph N/A   Overcast
11:35 PM 32.0 °F 20.8 °F 24.8 °F 75% 29.96 in 10.0 mi WNW 17.3 mph 20.7 mph N/A   Overcast
11:55 PM 32.0 °F 22.5 °F 24.8 °F 75% 29.97 in 10.0 mi WNW 12.7 mph 18.4 mph N/A   Overcast